Location: Pine Creek
(45.5072°N, 110.5649°W)
Time: 06:05:31
(UTC+00:00)

Envisat - Pass Details

Date: 23 January 2022
Orbit: 764 x 765 km, 98.2° (Epoch: 22 May)

Event Time Altitude Azimuth Distance (km) Brightness Sun altitude
Rises 00:44:21 0° 213° (SSW) 3,218 7.2 -5.5°
Reaches altitude 10° 00:47:37 10° 235° (SW) 2,298 7.1 -6.0°
Maximum altitude 00:50:34 16° 271° (W) 1,946 6.3 -6.5°
Drops below altitude 10° 00:53:33 10° 307° (NW) 2,307 6.0 -7.0°
Sets 00:56:51 0° 330° (NNW) 3,239 6.4 -7.5°
